Location: *
(43.2048°N, 0.1612°E)
Time: 20:47:36
(UTC+00:00)

PAYLOAD A - Pass Details

Date: 30 September 2023
Orbit: 692 x 830 km, 98.5° (Epoch: 06 December)

Event Time Altitude Azimuth Distance (km) Brightness Sun altitude
Rises 03:38:17 0° 13° (NNE) 3,130 7.6 -25.3°
Reaches altitude 10° 03:40:31 10° 14° (NNE) 2,222 6.8 -24.9°
Maximum altitude 03:45:24 88° 107° (ESE) 749 3.8 -24.0°
Enters shadow 03:46:45 50° 193° (SSW) 948 4.2 -23.8°
